Regional Weather Roundup
Issued by NWS Bismarck, ND

Home | Current Version | Previous Version | Text Only | Print | Product List | Glossary On
Versions: 1 2 3 4 5 6 7 8 9 10 11 12 13 14 15 16 17 18 19 20 21 22 23 24 25 26 27 28 29 30 31 32 33 34 35 36 37 38 39 40 41 42 43 44 45 46 47 48 49 50
549
ASUS43 KBIS 290202
RWRBIS

NWR BROADCAST TEXT
NATIONAL WEATHER SERVICE BISMARCK ND
900 PM CDT WED JUN 28 2017

NOTE: "FAIR" INDICATES FEW OR NO CLOUDS BELOW 12,000 FEET WITH NO
SIGNIFICANT WEATHER AND/OR OBSTRUCTIONS TO VISIBILITY.


CITY           SKY/WX    TMP DP  RH WIND       PRES   REMARKS
WILLISTON      PTCLDY    72  47  40 CALM      29.73R
MINOT          PTCLDY    75  47  36 NW8       29.71R
MINOT AFB      PTCLDY    73  48  40 NW7       29.70R
BISMARCK       CLEAR     77  48  35 N6        29.73R
DICKINSON      CLOUDY    70  44  39 E7        29.75S
GARRISON         N/A     71  50  47 CALM      29.73R
HETTINGER ARPT CLOUDY    75  35  23 E9        29.77S
JAMESTOWN      CLEAR     71  50  47 N8        29.69R
HAZEN          FAIR      68  54  60 CALM      29.76R
LINTON           N/A    N/A N/A N/A N5        29.75R
MANDAN         FAIR      72  50  46 N6        29.75R
STANLEY        FAIR      70  52  52 CALM      29.77R
TIOGA          FAIR      70  48  46 CALM      29.77R
WATFORD CITY   FAIR      70  50  49 CALM      29.73R
$$

CITY           SKY/WX    TMP DP  RH WIND       PRES   REMARKS
GRAND FORKS    CLOUDY    67  64  90 N6        29.64S
GRAND FORKS AF PTCLDY    65  63  93 N5        29.66R
DEVILS LAKE    CLEAR     69  58  67 NW7       29.69R
FARGO          MOCLDY    66  63  90 N10       29.64R
CAVALIER       FAIR      68  63  83 N5        29.66R
GRAFTON        FAIR      66  64  94 NE6       29.67S
GWINNER        CLOUDY    70  61  73 CALM      29.67R
LANGDON        FAIR      70  66  88 E7        29.69R
ROLLA            N/A     70  54  56 NW7       29.71S
$$

CITY           SKY/WX    TMP DP  RH WIND       PRES   REMARKS
ABERDEEN       CLEAR     71  45  39 NW6       29.69R
MOBRIDGE       CLOUDY    72  41  32 N9        29.71R
BUFFALO          N/A     73  43  33 S9        29.72R
RAPID CITY     CLEAR     64  52  64 NW16      29.81R
GLASGOW        CLOUDY    75  45  34 SE14      29.69S
SIDNEY         CLOUDY    68  52  56 S6        29.73F
WOLF POINT     CLOUDY    72  45  37 S12       29.72R
GLENDIVE       CLOUDY    69  45  41 SE10      29.76S
MILES CITY     CLOUDY    70  43  37 E20G26    29.75R
BAKER          CLOUDY    68  43  40 N9        29.81S
$$

CITY           SKY/WX    TMP DP  RH WIND       PRES   REMARKS
BILLINGS       CLOUDY    63  47  55 SW13      29.82S
GREAT FALLS    CLOUDY    71  32  23 W20       29.79R
$$





USA.gov is the U.S. government's official web portal to all federal, state and local government web resources and services.